Vertical_Velocity
-1 2 -8 -7 0 -5 -15 -12 -9 -11 -7 -1 -2 -2 1 -1 -2 -3 -3 -3 -2 -0 -1 1 -2 0 1 1 2 6 -2 1 1 -3 1 0 -1 -1 0 -0 0 -0 -2 -0 -2 0 -1 5 -1 0 1 0 1 1
0 1 -5 -3 -3 -8 -11 -18 -9 -11 -9 -2 -5 -4 -2 -4 -0 -1 -4 -2 -1 -2 -3 1 2 3 -4 1 3 -0 -1 0 1 0 -0 0 3 -2 2 -1 -2 -1 -1 1 -2 -2 0 1 1 -0 -3 1 0 1
-0 0 -5 -3 -2 -8 -8 -7 -15 -13 -10 -2 -2 -5 -3 -4 2 2 2 -2 2 2 -0 -3 -1 0 4 0 3 -0 -1 -2 1 2 -1 -2 -1 2 -0 1 -2 -0 0 1 -1 -1 1 -1 2 -2 1 -0 -0 -0
-2 -1 -4 -1 -4 -4 -10 -3 -7 -12 -11 -3 -3 -3 -1 -4 -2 2 -1 -0 0 0 1 0 -2 -0 3 3 3 2 3 -0 2 -0 -4 1 4 -0 2 -1 -3 2 -1 1 2 2 -0 2 0 2 -1 -1 -0 -0
-1 1 -2 -2 -3 -0 -5 -8 -7 -8 -16 -1 -2 -3 -1 -2 -4 2 -3 -0 -1 1 0 -1 -0 1 2 4 2 1 1 0 1 3 -5 1 -2 -10 8 -7 2 5 3 2 -2 -2 -1 1 0 1 -0 3 1 0
-1 -0 -2 -5 -6 -5 -1 1 -5 -17 -20 -5 -4 0 -6 -4 -7 3 -3 3 1 1 -1 3 4 2 6 7 5 2 -2 -3 -1 -0 -2 -1 8 -9 -12 -9 13 1 -3 0 -3 1 1 -2 2 -1 -0 0 -0 -1
-3 -1 -2 -5 -5 -5 -1 -4 -7 -3 -20 -14 -8 -1 -4 -2 1 -4 -1 -1 1 4 2 4 4 0 -4 -3 0 2 3 3 -1 -1 1 -3 11 -16 -10 -16 22 3 -2 -8 1 -2 -2 -0 -0 -2 1 1 -0 -0
-3 -0 -2 -5 -6 -8 -1 -3 -8 -7 -7 -10 -7 -2 -1 1 -3 -5 -1 2 3 2 0 1 0 1 1 3 2 1 -1 1 1 -6 -7 -9 -0 -4 -21 36 5 11 1 3 -1 -1 -2 -4 0 -2 -3 2 2 0
1 1 3 -5 -8 -7 2 -4 -2 0 -14 -9 -11 -7 -7 -0 -1 -2 -2 1 1 2 -2 -1 3 3 3 2 5 2 -3 -0 1 -2 -16 -16 -7 -2 13 23 10 4 4 -2 3 -2 1 -1 -3 1 -1 -0 0 -1
-2 3 1 2 -5 -14 -0 -3 -2 -4 -9 -8 -5 -9 -5 -6 3 1 1 2 2 0 -1 -1 1 0 3 3 2 2 -0 3 -7 -13 -14 -8 -4 -20 -16 -9 -10 7 8 1 5 4 1 1 -1 -2 0 -0 0 -1
0 3 2 4 3 -11 -9 -8 -2 -1 -8 -9 -5 -7 -15 -6 -2 -1 -1 -0 5 6 6 2 -4 -0 0 0 -3 -1 -1 1 -2 -4 -12 -7 2 16 12 5 6 4 6 4 2 4 2 -1 -2 0 1 1 -1 -1
-7 4 0 1 0 -6 -3 -10 -6 -3 -5 -6 -9 -5 4 -15 -12 -8 -2 -1 -0 -0 3 2 0 -1 2 1 -2 -3 0 -2 -2 -5 -4 1 24 1 1 11 19 12 8 5 2 3 -2 -2 1 1 -1 -1 -2 -3
-4 -3 1 -3 4 -4 -2 -3 -12 -4 -4 -3 -9 -13 -7 -2 -4 -7 -10 -5 -3 1 1 2 -1 1 1 1 -0 -2 -3 -0 -0 1 1 -0 -1 4 11 1 -4 -5 -2 3 2 -2 -1 1 -0 -0 -1 -2 -4 -3
-2 3 1 -7 3 -3 -1 -2 -4 -1 -6 -8 -16 -1 -7 -9 -8 -8 -8 -7 -8 -6 -4 -2 -2 2 1 -1 1 0 -2 -1 0 2 1 -1 0 1 1 -2 -3 1 2 2 2 0 1 -1 -0 -2 -3 -3 -2 -3
1 3 2 -2 -3 1 -2 -2 -5 2 -4 -5 -10 -4 -5 -6 -4 -5 -7 -12 -3 -2 -3 -3 -3 1 -0 2 2 1 -0 -2 -2 3 4 7 2 -0 -2 -3 -2 -0 1 0 1 1 1 -1 -1 -1 -3 -4 -4 0
6 1 -4 3 -0 -3 -2 -2 -2 4 -0 -6 -3 -5 -1 -4 -9 -7 -2 -8 -9 -3 -4 -5 -3 -3 0 3 4 2 1 3 2 -1 3 6 3 4 1 -0 -1 -2 -1 -1 -1 -1 -1 0 -1 -1 1 1 -1 2
5 3 2 -5 -0 -1 -7 0 -3 3 -1 -1 -1 -0 1 2 -4 -7 -5 -6 -5 -6 -1 -2 -5 -1 -1 1 3 5 10 3 -7 -5 -4 -2 7 2 6 1 12 5 1 -0 1 4 4 2 0 0 2 0 2 3
2 1 1 -6 6 -10 2 -5 -3 -6 -3 7 0 1 1 -3 -5 -8 -3 -9 -9 -5 -3 -3 -5 3 -6 1 3 -3 -3 2 7 4 0 2 -0 1 -0 4 2 3 5 2 -1 -1 7 4 3 3 3 4 1 5
6 5 -1 -2 -4 -1 -1 -5 5 -11 -2 4 6 -2 -0 0 -3 -7 -5 -6 -7 -4 -5 1 -1 3 -2 1 -3 -0 1 2 -2 -3 2 2 3 -0 2 2 2 3 2 2 2 2 1 1 1 2 3 1 -1 -1
5 2 3 -5 3 -3 -2 -8 2 -6 -1 4 8 1 -0 0 -1 -1 -8 -6 -4 -4 1 -2 2 4 -4 -1 -1 -2 0 2 1 2 -1 -3 -1 3 1 -0 2 1 1 1 1 1 1 0 0 0 0 1 0 -0
3 4 -5 -3 -3 -0 -7 -6 0 -4 1 2 2 0 -0 1 4 2 -0 -4 -4 8 -1 4 -7 7 1 3 -5 -0 1 -4 1 -2 5 3 -3 0 1 2 1 1 -1 0 0 -0 -0 -0 -0 -1 -1 -1 -1 -1
7 0 2 -3 -6 -9 -6 1 -7 4 -2 0 0 -2 -2 -0 -1 4 -10 0 0 15 -3 -7 1 -1 4 1 0 -3 0 -0 -1 2 0 -2 1 0 -1 -4 1 2 2 -1 1 0 -0 0 0 -0 -1 -1 -1 -2
5 3 -2 -1 -3 -2 -13 2 1 9 -7 -5 -1 -6 -6 -4 -9 -3 -8 2 6 15 -7 -3 0 -1 3 -1 0 -1 -0 -2 1 -3 -3 -3 -3 1 3 1 -1 -2 -2 -2 0 -1 -0 -0 -1 -0 0 -0 -0 -0
2 -3 -3 -10 -2 -3 -1 -1 -4 -1 -9 1 -2 -4 -9 -2 -5 -7 -9 6 12 1 -6 -3 2 0 1 1 1 1 0 -0 2 1 -2 -1 -1 -2 0 2 3 2 -1 -0 1 -3 -0 0 0 -0 -0 -1 -1 -0
1 -8 -2 -14 -9 3 4 3 5 -1 0 6 -2 -4 -9 -2 -9 -8 -2 13 -5 -1 -1 3 5 5 2 1 -0 0 1 -0 1 2 -3 1 1 1 -1 -1 0 -0 2 -0 -2 1 -1 -1 -1 -1 -0 0 0 0
2 -6 -2 -4 7 13 -1 -2 1 6 3 -1 -3 -0 -4 -5 -4 -8 7 -3 -2 3 3 4 5 3 2 3 4 1 1 1 1 -1 -0 0 1 0 -1 2 -1 -1 1 2 0 -1 1 1 2 2 1 2 1 1
-9 5 8 10 3 -1 -1 4 3 -3 -3 -2 1 1 -3 -5 -3 3 1 2 -3 -0 0 -0 2 -1 -0 -1 -1 1 1 1 2 1 1 2 2 2 1 0 -0 -2 1 -1 1 1 1 1 2 1 -0 -1 -0 1
-1 5 3 8 -3 6 -3 -1 -0 -1 1 -2 -2 -4 -8 -2 2 -1 1 2 -4 -4 -2 0 2 2 -4 0 -1 -1 2 1 3 3 2 2 1 1 1 1 1 1 0 1 1 -0 -1 -0 -0 -0 0 0 -1 1
-6 4 8 2 1 -2 -3 1 1 1 1 -6 -6 -2 -4 -1 2 4 -0 -6 -1 1 3 1 2 -12 -1 -1 -0 -0 2 2 1 2 2 2 1 -1 0 1 1 -0 0 0 -0 -0 -0 -1 -0 0 0 0 -1 -1
2 6 0 6 2 -2 8 5 -7 -5 -5 -4 -2 -2 -1 5 7 -4 -1 2 2 -1 -5 1 0 -7 7 4 5 1 -3 2 1 2 3 2 2 -1 0 2 2 1 0 -1 -1 -0 -0 -1 -1 -1 0 -0 -3 -3
9 11 5 1 -7 2 -1 -3 -2 1 0 1 1 -5 2 -1 13 4 3 6 1 -2 0 0 2 1 3 2 3 3 -2 -2 1 1 1 1 -1 -0 0 0 1 1 1 0 0 -1 -1 0 -1 -1 -2 -1 -2 0
0 -3 -5 -6 -1 3 -0 -0 -0 -4 -3 -3 -2 -3 -2 -9 -9 9 14 8 1 -3 -3 2 5 3 3 3 5 4 2 -2 -1 -2 0 1 -0 0 -0 0 0 0 0 -0 -1 -1 -0 -0 -0 -0 2 0 -1 -2
-9 -4 1 -1 -1 -3 0 -7 -10 -9 -1 -3 -3 -6 -5 -12 -24 2 17 16 -1 -4 -3 -1 1 -1 -2 1 2 2 2 0 -0 1 0 0 0 -0 -0 -0 -0 0 -0 -0 0 0 -0 0 -0 -2 0 2 1 1
Height
5672 5671 5666 5661 5658 5651 5647 5640 5633 5626 5613 5600 5592 5586 5582 5578 5574 5572 5568 5566 5567 5569 5571 5573 5578 5582 5586 5589 5591 5596 5597 5598 5599 5600 5602 5604 5605 5607 5609 5611 5612 5614 5616 5618 5619 5622 5625 5626 5628 5631 5633 5633 5634 5636
5666 5663 5659 5656 5651 5646 5638 5632 5627 5620 5609 5595 5588 5583 5579 5575 5570 5564 5561 5560 5560 5561 5563 5567 5570 5574 5579 5583 5587 5589 5591 5591 5594 5596 5597 5598 5600 5603 5605 5606 5608 5610 5612 5614 5616 5618 5620 5622 5624 5626 5628 5630 5631 5632
5657 5656 5654 5651 5646 5641 5632 5625 5620 5613 5603 5591 5584 5580 5576 5572 5566 5560 5555 5553 5552 5553 5556 5560 5564 5568 5571 5575 5579 5583 5584 5587 5588 5590 5591 5592 5594 5597 5598 5601 5601 5605 5607 5609 5611 5613 5615 5617 5619 5621 5623 5625 5626 5628
5650 5650 5648 5646 5642 5636 5629 5620 5614 5605 5597 5586 5581 5577 5573 5570 5563 5558 5551 5548 5546 5547 5550 5555 5558 5561 5564 5568 5572 5576 5579 5580 5581 5582 5582 5583 5585 5589 5591 5593 5594 5599 5601 5605 5606 5607 5609 5611 5613 5615 5617 5618 5620 5622
5644 5644 5642 5641 5638 5633 5625 5619 5610 5601 5594 5584 5578 5574 5571 5568 5562 5556 5551 5546 5544 5547 5547 5550 5553 5556 5558 5562 5566 5569 5571 5573 5574 5574 5574 5575 5576 5576 5579 5583 5587 5590 5595 5596 5599 5600 5603 5606 5609 5610 5611 5613 5614 5615
5636 5635 5635 5634 5633 5629 5623 5615 5607 5601 5593 5583 5575 5572 5569 5566 5561 5554 5550 5547 5545 5545 5546 5548 5550 5552 5554 5557 5559 5562 5564 5566 5567 5566 5565 5563 5562 5562 5564 5570 5576 5580 5583 5587 5589 5592 5595 5599 5601 5603 5605 5606 5607 5608
5629 5629 5628 5628 5628 5625 5619 5612 5605 5598 5591 5584 5575 5569 5566 5564 5560 5555 5551 5547 5545 5546 5547 5548 5548 5550 5551 5554 5557 5560 5561 5560 5558 5555 5552 5547 5543 5539 5546 5554 5561 5565 5571 5575 5580 5584 5586 5591 5593 5594 5597 5599 5600 5601
5622 5622 5621 5622 5622 5620 5614 5608 5601 5596 5591 5583 5577 5569 5564 5562 5560 5556 5551 5549 5548 5548 5548 5549 5551 5552 5553 5554 5555 5555 5555 5553 5551 5544 5535 5522 5514 5509 5517 5538 5541 5548 5557 5564 5570 5575 5579 5582 5585 5587 5589 5591 5592 5593
5615 5615 5614 5617 5616 5614 5608 5603 5598 5593 5589 5584 5579 5572 5564 5560 5559 5556 5552 5551 5550 5551 5550 5550 5551 5552 5552 5551 5551 5551 5550 5548 5542 5533 5523 5503 5487 5481 5494 5514 5526 5536 5544 5552 5560 5566 5571 5575 5578 5580 5582 5584 5585 5585
5608 5609 5608 5611 5609 5608 5603 5598 5593 5591 5586 5583 5579 5573 5567 5559 5556 5555 5552 5551 5550 5550 5550 5549 5549 5548 5548 5547 5547 5548 5545 5541 5537 5533 5527 5516 5501 5493 5498 5513 5522 5532 5538 5545 5552 5559 5564 5567 5570 5573 5574 5576 5577 5577
5602 5602 5603 5605 5603 5602 5598 5593 5589 5585 5581 5581 5578 5573 5570 5563 5557 5553 5550 5549 5548 5548 5548 5547 5547 5546 5545 5544 5544 5542 5539 5538 5534 5533 5529 5522 5516 5516 5517 5519 5524 5528 5534 5540 5545 5553 5557 5560 5563 5565 5567 5568 5569 5570
5594 5595 5596 5597 5597 5596 5592 5589 5585 5582 5577 5577 5576 5571 5567 5564 5558 5553 5549 5547 5545 5544 5543 5542 5542 5542 5541 5540 5540 5540 5538 5536 5534 5532 5530 5527 5525 5523 5522 5523 5526 5530 5533 5537 5543 5548 5551 5554 5556 5559 5561 5561 5561 5562
5586 5587 5587 5589 5590 5588 5585 5582 5580 5576 5573 5572 5570 5566 5564 5561 5558 5554 5549 5545 5542 5540 5539 5538 5537 5538 5537 5537 5537 5536 5537 5536 5534 5533 5531 5530 5528 5527 5527 5527 5529 5531 5534 5537 5540 5544 5546 5549 5551 5553 5554 5554 5554 5554
5577 5577 5579 5580 5580 5579 5577 5575 5573 5569 5566 5566 5565 5562 5559 5556 5553 5551 5548 5544 5540 5537 5535 5533 5532 5533 5532 5533 5533 5533 5534 5534 5533 5532 5531 5530 5529 5529 5529 5530 5530 5531 5533 5535 5537 5540 5542 5544 5545 5545 5545 5546 5545 5544
5567 5568 5569 5571 5572 5571 5568 5567 5565 5561 5558 5559 5558 5556 5552 5551 5549 5546 5544 5540 5534 5531 5530 5529 5527 5527 5526 5527 5528 5529 5530 5531 5531 5531 5530 5528 5528 5528 5528 5528 5529 5529 5530 5532 5534 5536 5537 5538 5539 5539 5539 5538 5537 5537
5557 5557 5559 5560 5561 5561 5560 5558 5556 5553 5551 5551 5550 5548 5546 5543 5541 5540 5537 5535 5530 5525 5523 5522 5520 5520 5520 5520 5521 5523 5524 5526 5527 5526 5525 5525 5525 5525 5524 5525 5525 5526 5526 5528 5529 5530 5532 5533 5533 5533 5533 5533 5533 5532
5545 5547 5548 5550 5551 5551 5550 5549 5547 5545 5543 5542 5541 5539 5536 5535 5533 5532 5530 5529 5525 5522 5518 5515 5514 5513 5511 5512 5514 5515 5516 5517 5517 5518 5518 5519 5520 5521 5520 5521 5521 5522 5523 5524 5524 5526 5527 5528 5529 5529 5529 5529 5529 5529
5535 5537 5537 5539 5540 5540 5541 5538 5536 5536 5536 5535 5532 5529 5526 5525 5524 5523 5520 5519 5518 5515 5512 5510 5507 5506 5502 5503 5504 5504 5505 5505 5507 5510 5512 5513 5514 5515 5516 5517 5518 5519 5520 5521 5521 5523 5524 5524 5524 5524 5525 5525 5525 5524
5525 5526 5526 5526 5526 5527 5528 5527 5525 5525 5526 5523 5521 5519 5517 5515 5512 5511 5509 5508 5507 5505 5503 5501 5499 5496 5495 5493 5492 5494 5495 5496 5497 5499 5503 5505 5507 5508 5509 5511 5512 5513 5514 5516 5517 5517 5518 5518 5518 5519 5520 5520 5520 5520
5513 5513 5513 5512 5512 5513 5513 5514 5514 5512 5513 5511 5509 5507 5506 5505 5502 5499 5497 5495 5493 5492 5492 5490 5490 5486 5484 5484 5482 5483 5484 5485 5487 5490 5490 5492 5496 5499 5502 5503 5504 5505 5507 5508 5509 5510 5511 5511 5512 5513 5513 5513 5514 5514
5501 5500 5497 5497 5497 5500 5500 5500 5499 5500 5498 5497 5497 5495 5494 5491 5489 5487 5484 5481 5478 5478 5478 5479 5477 5476 5474 5473 5472 5472 5472 5473 5476 5478 5480 5482 5483 5485 5489 5492 5495 5496 5498 5499 5500 5502 5503 5503 5504 5505 5505 5506 5506 5506
5487 5485 5483 5482 5483 5484 5487 5486 5485 5484 5482 5484 5482 5479 5477 5477 5476 5473 5468 5462 5462 5463 5462 5461 5463 5463 5464 5463 5462 5461 5461 5462 5463 5465 5467 5470 5472 5474 5476 5479 5482 5485 5487 5489 5491 5492 5493 5495 5496 5496 5496 5496 5495 5495
5472 5472 5471 5471 5470 5469 5471 5472 5470 5469 5466 5467 5464 5463 5461 5459 5456 5453 5447 5448 5449 5448 5444 5448 5450 5452 5453 5453 5452 5451 5450 5451 5451 5452 5454 5456 5459 5462 5464 5467 5469 5472 5475 5477 5479 5481 5483 5484 5485 5485 5484 5484 5483 5483
5459 5457 5458 5457 5457 5456 5455 5453 5453 5453 5451 5449 5447 5445 5442 5440 5437 5434 5434 5437 5437 5434 5434 5437 5440 5442 5443 5443 5443 5442 5441 5440 5440 5440 5442 5444 5446 5449 5452 5455 5457 5459 5461 5463 5466 5468 5470 5472 5473 5473 5473 5472 5470 5470
5443 5443 5442 5440 5441 5443 5442 5441 5440 5437 5437 5434 5430 5427 5426 5425 5423 5422 5424 5427 5424 5425 5426 5428 5431 5432 5433 5433 5433 5432 5432 5430 5430 5430 5431 5433 5434 5437 5440 5442 5445 5447 5449 5451 5452 5454 5457 5459 5461 5461 5462 5462 5462 5463
5432 5429 5429 5429 5430 5428 5428 5427 5425 5423 5419 5417 5415 5415 5414 5413 5413 5413 5416 5415 5414 5416 5418 5420 5421 5423 5423 5424 5424 5423 5423 5422 5422 5422 5423 5424 5425 5427 5429 5432 5434 5436 5437 5439 5441 5442 5445 5446 5448 5449 5451 5451 5452 5453
5416 5416 5418 5414 5411 5411 5409 5409 5407 5406 5407 5406 5406 5406 5405 5404 5406 5408 5407 5407 5407 5408 5409 5411 5412 5413 5414 5415 5415 5415 5415 5415 5415 5415 5415 5416 5417 5419 5420 5423 5425 5426 5428 5430 5431 5433 5435 5436 5437 5438 5439 5440 5441 5442
5402 5403 5403 5400 5397 5396 5395 5397 5398 5398 5398 5398 5397 5398 5397 5399 5400 5399 5398 5398 5398 5399 5400 5402 5403 5404 5406 5407 5407 5407 5408 5408 5408 5409 5409 5409 5409 5410 5412 5414 5415 5417 5418 5420 5421 5423 5424 5425 5426 5426 5426 5427 5427 5427
5389 5390 5389 5388 5388 5388 5389 5390 5390 5391 5390 5388 5389 5390 5390 5390 5391 5390 5389 5389 5390 5391 5391 5392 5394 5395 5398 5399 5400 5400 5401 5401 5401 5402 5402 5403 5403 5403 5404 5405 5406 5407 5408 5409 5410 5411 5412 5413 5413 5413 5414 5414 5413 5413
5381 5382 5382 5382 5382 5383 5384 5382 5382 5382 5381 5381 5381 5381 5382 5383 5382 5381 5382 5383 5383 5383 5383 5384 5387 5390 5392 5393 5393 5394 5393 5394 5394 5395 5395 5395 5396 5396 5397 5397 5398 5398 5399 5399 5400 5401 5401 5401 5401 5401 5401 5400 5399 5399
5375 5376 5376 5376 5376 5377 5375 5375 5375 5375 5375 5375 5374 5374 5375 5374 5376 5375 5375 5376 5376 5375 5376 5378 5381 5384 5385 5386 5386 5387 5387 5388 5388 5388 5388 5388 5388 5388 5388 5389 5389 5389 5389 5389 5389 5389 5389 5389 5388 5387 5386 5385 5383 5383
5369 5370 5370 5370 5371 5370 5368 5367 5366 5364 5365 5365 5366 5366 5367 5366 5366 5369 5370 5370 5369 5368 5369 5371 5374 5377 5379 5380 5380 5381 5381 5381 5381 5381 5381 5381 5381 5381 5381 5380 5380 5380 5379 5379 5378 5377 5376 5375 5373 5372 5371 5369 5367 5365
5363 5364 5363 5362 5362 5361 5360 5356 5354 5351 5351 5353 5355 5356 5356 5356 5357 5361 5361 5361 5361 5362 5364 5364 5367 5370 5372 5373 5374 5374 5374 5374 5374 5374 5374 5374 5374 5373 5372 5372 5371 5370 5369 5367 5366 5365 5363 5361 5359 5356 5354 5351 5347 5345